Regional Weather Roundup
Issued by NWS Mt. Holly, NJ

Home | Current Version | Previous Version | Text Only | Print | Product List | Glossary On
Versions: 1 2 3 4 5 6 7 8 9 10 11 12 13 14 15 16 17 18 19 20 21 22 23 24 25 26 27 28 29 30 31 32 33 34 35 36 37 38 39 40 41 42 43 44 45 46 47 48 49 50
000
ASUS41 KPHI 300811
RWRPHI

REGIONAL WEATHER ROUNDUP
NATIONAL WEATHER SERVICE MOUNT HOLLY NJ
400 AM EDT SUN APR 30 2017

NOTE:  "FAIR" INDICATES FEW OR NO CLOUDS BELOW 12,000 FEET WITH NO
SIGNIFICANT WEATHER AND/OR OBSTRUCTIONS TO VISIBILITY.

 * = STATION DOES NOT REPORT PRECIPITATION (E.G. RAIN, SNOW, ETC.)
        OR FOG.

NJZ015>026-300900-
SOUTHERN NEW JERSEY

CITY           SKY/WX    TMP DP  RH WIND       PRES   REMARKS
POMONA         PTCLDY    67  57  70 NE10      30.13R
WILDWOOD*      CLOUDY    72  61  68 NE12      30.12R
MILLVILLE      MOCLDY    70  62  76 NE8       30.12R
WRIGHTSTOWN    PTCLDY    63  56  77 NE3       30.12R
MOUNT HOLLY    PTCLDY    65  56  72 NE5       30.14R
TRENTON        PTCLDY    63  51  65 N5        30.14R

$$
NJZ001>014-300900-
NORTHERN NEW JERSEY

CITY           SKY/WX    TMP DP  RH WIND       PRES   REMARKS
SUSSEX         PTCLDY    54  44  69 NW3       30.17F
ANDOVER*         N/A     56  44  64 CALM      30.16S
MORRISTOWN     PTCLDY    59  45  58 CALM      30.16R
NEWARK         MOCLDY    64  42  44 N10       30.15R
TETERBORO      CLEAR     62  44  51 N3        30.14R
CALDWELL       CLEAR     61  42  49 CALM      30.16R
SOMERVILLE     MOCLDY    61  47  59 N3        30.14R
ALLAIRE*       CLEAR     64  55  72 N5        30.15R
TOMS RIVER*    PTCLDY    61  58  90 CALM      30.15R

$$
PAZ043-044-047-054-055-060>062-066>071-300900-
EASTERN PENNSYLVANIA

CITY           SKY/WX    TMP DP  RH WIND       PRES   REMARKS
PHILADELPHIA   MOCLDY    68  56  65 NE7       30.14R
NORTH PHILA    MOCLDY    65  56  72 NE7       30.15R
BLUE BELL*     PTCLDY    61  54  77 CALM      30.16R
DOYLESTOWN     PTCLDY    61  52  72 N5        30.14R
QUAKERTOWN*    PTCLDY    59  54  82 CALM      30.16S
PERKASIE*      CLOUDY    59  54  82 NE5       30.16S
POTTSTOWN      PTCLDY    59  55  87 NE3       30.16R
LANCASTER      CLOUDY    63  60  90 E3        30.14R
COATESVILLE    CLOUDY    63  55  77 CALM      30.15S
READING        CLEAR     62  53  72 NE6       30.14R
ALLENTOWN      CLEAR     57  49  74 NE5       30.15R
MOUNT POCONO   CLEAR     50  39  66 N5        30.16S
HAZLETON       CLEAR     52  37  58 N3        30.19F
LEHIGHTON      FAIR      59  37  44 N5        30.17S
WILKES BARRE   CLEAR     53  38  56 N8        30.18F

$$
DEZALL-MDZ008-012-015-019-020-300900-
DELAWARE AND EASTERN MARYLAND

CITY           SKY/WX    TMP DP  RH WIND       PRES   REMARKS
WILMINGTON     CLOUDY    69  58  67 NE9       30.12S
DOVER          MOCLDY    71  71 100 NE9       30.10R
GEORGETOWN     CLEAR     71  68  90 CALM      30.10R FOG
EASTON         CLEAR     73  70  89 CALM      30.12R
ABERDEEN       CLOUDY    69  61  76 E10       30.11R
PATUXENT       CLEAR     75  72  90 SW7       30.08R
OCEAN CITY     CLEAR     69  67  93 SW5       30.11R FOG
WALLOPS ISLAND CLEAR     68  68 100 S3        30.11R FOG
SALISBURY      CLEAR     73  71  93 SW5       30.10R

$$
PAZ001-021-NYZ056-072-MDZ011-DCZ001-300900-
OTHER NEARBY LOCATIONS

CITY           SKY/WX    TMP DP  RH WIND       PRES   REMARKS
HARRISBURG     PTCLDY    64  58  80 E8        30.12R
STATE COLLEGE  CLEAR     55  52  90 NE7       30.14S
WILLIAMSPORT   CLEAR     56  45  66 NE6       30.15F
BINGHAMTON     CLEAR     42  34  73 NE6       30.18S
NEW YORK CITY  CLEAR     64  43  46 VRB3      30.17R
BALTIMORE      PTCLDY    71  66  84 E8        30.08R
WASHINGTON DC  PTCLDY    73  71  93 S7        30.07R

$$



USA.gov is the U.S. government's official web portal to all federal, state and local government web resources and services.